WWA3177 EGCC-EDDF

Flight info

Callsign WWA3177
Flight time 1h 16m
Altitude FL350
Route SONE1R SONEX L975 DESIG L603 DOLAS NAVPI NOLRU DIXAT DIXA1A
Aircraft B752/M-SDE3FHIM3RW/LB1

Departure

Time 2026-04-17 08:56
Airport Manchester Airport (EGCC)

Arrival

Time 2026-04-17 10:12
Airport Frankfurt Main Airport (EDDF)
Time Latitude Longitude Altitude Speed Heading
2026-04-17 08:37 53.36002 -2.27126 266 ft 0 kts 91°
2026-04-17 08:40 53.36002 -2.27125 266 ft 0 kts 91°
2026-04-17 08:46 53.36002 -2.27124 266 ft 0 kts 91°
2026-04-17 08:47 53.36002 -2.27140 266 ft 2 kts 91°
2026-04-17 08:47 53.36003 -2.27170 266 ft 3 kts 91°
2026-04-17 08:47 53.36004 -2.27203 266 ft 3 kts 105°
2026-04-17 08:47 53.36013 -2.27233 266 ft 3 kts 137°
2026-04-17 08:48 53.36018 -2.27240 266 ft 0 kts 169°
2026-04-17 08:49 53.36016 -2.27240 266 ft 4 kts 169°
2026-04-17 08:50 53.35957 -2.27229 266 ft 9 kts 174°
2026-04-17 08:50 53.35900 -2.27220 266 ft 5 kts 173°
2026-04-17 08:50 53.35887 -2.27217 266 ft 5 kts 173°
2026-04-17 08:50 53.35854 -2.27207 266 ft 12 kts 162°
2026-04-17 08:51 53.35803 -2.27116 266 ft 11 kts 91°
2026-04-17 08:51 53.35837 -2.26981 266 ft 15 kts 61°
2026-04-17 08:51 53.35914 -2.26797 266 ft 22 kts 54°
2026-04-17 08:51 53.35987 -2.26638 266 ft 13 kts 50°
2026-04-17 08:52 53.36036 -2.26536 266 ft 15 kts 51°
2026-04-17 08:52 53.36135 -2.26336 266 ft 19 kts 49°
2026-04-17 08:52 53.36208 -2.26217 266 ft 11 kts 45°
2026-04-17 08:52 53.36250 -2.26125 266 ft 8 kts 61°
2026-04-17 08:53 53.36268 -2.26029 266 ft 4 kts 75°
2026-04-17 08:53 53.36270 -2.26021 266 ft 0 kts 75°
2026-04-17 08:53 53.36275 -2.25992 266 ft 11 kts 73°
2026-04-17 08:53 53.36282 -2.25844 266 ft 12 kts 104°
2026-04-17 08:54 53.36230 -2.25769 266 ft 7 kts 185°
2026-04-17 08:54 53.36184 -2.25821 266 ft 7 kts 226°
2026-04-17 08:54 53.36171 -2.25845 266 ft 0 kts 228°
2026-04-17 08:54 53.36171 -2.25846 266 ft 0 kts 228°
2026-04-17 08:55 53.36170 -2.25847 266 ft 0 kts 228°
2026-04-17 08:55 53.36037 -2.26124 266 ft 72 kts 231°
2026-04-17 08:55 53.35528 -2.27180 267 ft 158 kts 230°
2026-04-17 08:55 53.34729 -2.28827 514 ft 202 kts 231°
2026-04-17 08:56 53.33812 -2.30740 1133 ft 219 kts 231°
2026-04-17 08:56 53.32827 -2.32805 1827 ft 234 kts 230°
2026-04-17 08:56 53.31809 -2.34945 2544 ft 235 kts 230°
2026-04-17 08:56 53.31000 -2.37325 3190 ft 241 kts 245°
2026-04-17 08:57 53.30878 -2.40175 3903 ft 257 kts 269°
2026-04-17 08:57 53.31502 -2.43047 4617 ft 272 kts 291°
2026-04-17 08:57 53.32811 -2.45398 5320 ft 285 kts 314°
2026-04-17 08:57 53.34639 -2.46822 6023 ft 299 kts 336°
2026-04-17 08:58 53.36732 -2.47062 6726 ft 309 kts 359°
2026-04-17 08:58 53.38844 -2.46291 7451 ft 315 kts 14°
2026-04-17 08:58 53.40803 -2.44687 8154 ft 314 kts 30°
2026-04-17 08:58 53.42513 -2.42421 8864 ft 316 kts 43°
2026-04-17 08:59 53.43981 -2.39700 9570 ft 315 kts 52°
2026-04-17 08:59 53.45240 -2.36683 10215 ft 323 kts 59°
2026-04-17 08:59 53.46419 -2.33266 10502 ft 354 kts 64°
2026-04-17 08:59 53.47553 -2.29472 10834 ft 377 kts 67°
2026-04-17 09:00 53.48586 -2.25462 11466 ft 371 kts 70°
2026-04-17 09:00 53.49424 -2.21340 12095 ft 378 kts 75°
2026-04-17 09:00 53.50080 -2.17024 12727 ft 385 kts 79°
2026-04-17 09:00 53.50606 -2.12600 13356 ft 388 kts 82°
2026-04-17 09:01 53.51045 -2.08118 13984 ft 391 kts 84°
2026-04-17 09:01 53.51433 -2.03575 14610 ft 395 kts 85°
2026-04-17 09:01 53.51813 -1.98994 15235 ft 399 kts 85°
2026-04-17 09:01 53.52159 -1.94366 15854 ft 401 kts 88°
2026-04-17 09:02 53.52174 -1.89704 16480 ft 400 kts 96°
2026-04-17 09:02 53.51886 -1.85058 17110 ft 402 kts 102°
2026-04-17 09:02 53.51368 -1.80443 17739 ft 404 kts 107°
2026-04-17 09:02 53.50685 -1.75866 18362 ft 407 kts 110°
2026-04-17 09:03 53.49882 -1.71288 18894 ft 412 kts 112°
2026-04-17 09:03 53.48996 -1.66700 19399 ft 416 kts 114°
2026-04-17 09:03 53.48080 -1.62082 19900 ft 419 kts 113°
2026-04-17 09:03 53.47178 -1.57418 20391 ft 422 kts 113°
2026-04-17 09:04 53.46287 -1.52709 20793 ft 427 kts 113°
2026-04-17 09:04 53.45401 -1.47944 21172 ft 430 kts 112°
2026-04-17 09:04 53.44522 -1.43146 21547 ft 433 kts 112°
2026-04-17 09:04 53.43646 -1.38309 21923 ft 435 kts 112°
2026-04-17 09:05 53.42774 -1.33455 22298 ft 437 kts 112°
2026-04-17 09:05 53.41901 -1.28577 22673 ft 438 kts 112°
2026-04-17 09:05 53.41020 -1.23682 23048 ft 440 kts 112°
2026-04-17 09:05 53.40131 -1.18765 23423 ft 443 kts 112°
2026-04-17 09:06 53.39233 -1.13829 23799 ft 446 kts 112°
2026-04-17 09:06 53.38324 -1.08856 24134 ft 450 kts 112°
2026-04-17 09:06 53.37402 -1.03838 24441 ft 454 kts 112°
2026-04-17 09:06 53.36470 -0.98778 24743 ft 457 kts 112°
2026-04-17 09:07 53.35531 -0.93687 25044 ft 459 kts 113°
2026-04-17 09:07 53.34587 -0.88586 25344 ft 461 kts 113°
2026-04-17 09:07 53.33637 -0.83455 25644 ft 463 kts 113°
2026-04-17 09:07 53.32682 -0.78316 25944 ft 465 kts 113°
2026-04-17 09:08 53.31720 -0.73152 26244 ft 467 kts 113°
2026-04-17 09:08 53.30750 -0.67960 26544 ft 469 kts 113°
2026-04-17 09:08 53.29775 -0.62757 26844 ft 472 kts 113°
2026-04-17 09:08 53.28790 -0.57519 27144 ft 475 kts 113°
2026-04-17 09:09 53.27797 -0.52258 27444 ft 477 kts 113°
2026-04-17 09:09 53.26796 -0.46963 27746 ft 479 kts 113°
2026-04-17 09:09 53.25790 -0.41657 28048 ft 482 kts 114°
2026-04-17 09:09 53.24778 -0.36331 28347 ft 484 kts 114°
2026-04-17 09:10 53.22728 -0.25594 28948 ft 488 kts 114°
2026-04-17 09:10 53.21698 -0.20213 29248 ft 489 kts 114°
2026-04-17 09:10 53.20661 -0.14816 29548 ft 490 kts 114°
2026-04-17 09:11 53.19620 -0.09413 29847 ft 491 kts 114°
2026-04-17 09:11 53.18575 -0.04002 30147 ft 491 kts 114°
2026-04-17 09:11 53.17527 0.01409 30447 ft 491 kts 114°
2026-04-17 09:11 53.16472 0.06814 30744 ft 492 kts 112°
2026-04-17 09:12 53.15415 0.12220 31042 ft 492 kts 112°
2026-04-17 09:12 53.14357 0.17627 31341 ft 492 kts 112°
2026-04-17 09:12 53.13316 0.22942 31635 ft 492 kts 112°
2026-04-17 09:12 53.12255 0.28343 31934 ft 492 kts 112°
2026-04-17 09:13 53.11193 0.33736 32233 ft 492 kts 112°
2026-04-17 09:13 53.10129 0.39129 32532 ft 491 kts 112°
2026-04-17 09:13 53.09065 0.44508 32831 ft 490 kts 112°
2026-04-17 09:13 53.07999 0.49876 33129 ft 489 kts 112°
2026-04-17 09:14 53.06933 0.55232 33428 ft 488 kts 113°
2026-04-17 09:14 53.05866 0.60574 33727 ft 487 kts 113°
2026-04-17 09:14 53.04800 0.65896 34025 ft 486 kts 113°
2026-04-17 09:14 53.03734 0.71202 34324 ft 484 kts 113°
2026-04-17 09:15 53.02668 0.76489 34622 ft 483 kts 113°
2026-04-17 09:15 53.01602 0.81761 34910 ft 482 kts 113°
2026-04-17 09:15 53.00532 0.87027 35064 ft 484 kts 113°
2026-04-17 09:15 52.99453 0.92319 35135 ft 488 kts 113°
2026-04-17 09:16 52.97192 1.03015 35158 ft 497 kts 114°
2026-04-17 09:16 52.94797 1.13840 35162 ft 504 kts 115°
2026-04-17 09:17 52.92334 1.24746 35167 ft 509 kts 115°
2026-04-17 09:17 52.89854 1.35610 35172 ft 512 kts 115°
2026-04-17 09:18 52.87326 1.46622 35174 ft 513 kts 115°
2026-04-17 09:18 52.84782 1.57649 35174 ft 514 kts 115°
2026-04-17 09:19 52.82228 1.68668 35175 ft 515 kts 115°
2026-04-17 09:19 52.79663 1.79689 35176 ft 515 kts 115°
2026-04-17 09:20 52.77087 1.90702 35178 ft 515 kts 115°
2026-04-17 09:20 52.74501 2.01704 35180 ft 515 kts 115°
2026-04-17 09:21 52.71903 2.12688 35182 ft 515 kts 114°
2026-04-17 09:21 52.69298 2.23662 35185 ft 515 kts 115°
2026-04-17 09:22 52.66685 2.34613 35188 ft 515 kts 115°
2026-04-17 09:22 52.64060 2.45560 35191 ft 515 kts 115°
2026-04-17 09:23 52.61425 2.56488 35193 ft 515 kts 115°
2026-04-17 09:23 52.58781 2.67394 35196 ft 515 kts 115°
2026-04-17 09:24 52.56121 2.78297 35200 ft 514 kts 115°
2026-04-17 09:24 52.53293 2.89047 35202 ft 513 kts 117°
2026-04-17 09:25 52.50307 2.99657 35204 ft 513 kts 118°
2026-04-17 09:25 52.47250 3.10194 35204 ft 513 kts 118°
2026-04-17 09:26 52.44162 3.20695 35205 ft 512 kts 118°
2026-04-17 09:26 52.41058 3.31174 35204 ft 512 kts 118°
2026-04-17 09:27 52.37946 3.41640 35204 ft 512 kts 118°
2026-04-17 09:27 52.34827 3.52096 35206 ft 512 kts 118°
2026-04-17 09:28 52.31706 3.62530 35210 ft 512 kts 118°
2026-04-17 09:28 52.28579 3.72951 35217 ft 512 kts 118°
2026-04-17 09:29 52.25492 3.83201 35223 ft 512 kts 118°
2026-04-17 09:29 52.22353 3.93590 35228 ft 512 kts 118°
2026-04-17 09:30 52.19209 4.03955 35231 ft 511 kts 118°
2026-04-17 09:30 52.16055 4.14312 35234 ft 511 kts 118°
2026-04-17 09:31 52.12891 4.24659 35236 ft 511 kts 118°
2026-04-17 09:31 52.09721 4.34984 35237 ft 511 kts 118°
2026-04-17 09:32 52.06540 4.45300 35237 ft 511 kts 118°
2026-04-17 09:32 52.03353 4.55595 35237 ft 511 kts 118°
2026-04-17 09:33 52.00163 4.65851 35238 ft 511 kts 118°
2026-04-17 09:33 51.96954 4.76123 35241 ft 511 kts 118°
2026-04-17 09:34 51.93744 4.86356 35251 ft 510 kts 118°
2026-04-17 09:34 51.90526 4.96575 35262 ft 510 kts 118°
2026-04-17 09:35 51.87298 5.06781 35263 ft 510 kts 118°
2026-04-17 09:35 51.84061 5.16974 35263 ft 510 kts 118°
2026-04-17 09:36 51.80818 5.27144 35263 ft 510 kts 118°
2026-04-17 09:36 51.77567 5.37300 35263 ft 510 kts 118°
2026-04-17 09:37 51.74306 5.47442 35263 ft 510 kts 118°
2026-04-17 09:37 51.71036 5.57571 35263 ft 510 kts 119°
2026-04-17 09:38 51.67755 5.67692 35263 ft 510 kts 119°
2026-04-17 09:38 51.64467 5.77793 35263 ft 510 kts 119°
2026-04-17 09:39 51.61167 5.87888 35263 ft 510 kts 119°
2026-04-17 09:39 51.57861 5.97960 35257 ft 509 kts 119°
2026-04-17 09:40 51.54552 6.07997 35265 ft 509 kts 119°
2026-04-17 09:40 51.51260 6.18042 35263 ft 510 kts 118°
2026-04-17 09:41 51.48307 6.28376 35263 ft 510 kts 114°
2026-04-17 09:41 51.45611 6.38876 35261 ft 511 kts 112°
2026-04-17 09:42 51.44305 6.44168 35107 ft 514 kts 112°
2026-04-17 09:42 51.42995 6.49541 34613 ft 522 kts 111°
2026-04-17 09:42 51.41681 6.54961 34074 ft 523 kts 111°
2026-04-17 09:42 51.40387 6.60305 33526 ft 509 kts 111°
2026-04-17 09:43 51.39125 6.65517 32976 ft 500 kts 111°
2026-04-17 09:43 51.37873 6.70664 32426 ft 494 kts 111°
2026-04-17 09:43 51.36631 6.75744 31877 ft 488 kts 111°
2026-04-17 09:43 51.35397 6.80764 31326 ft 482 kts 111°
2026-04-17 09:44 51.34173 6.85715 30776 ft 477 kts 111°
2026-04-17 09:44 51.32956 6.90609 30226 ft 472 kts 111°
2026-04-17 09:44 51.31746 6.95451 29677 ft 468 kts 111°
2026-04-17 09:44 51.30543 7.00238 29127 ft 463 kts 112°
2026-04-17 09:45 51.29347 7.04975 28577 ft 458 kts 112°
2026-04-17 09:45 51.28150 7.09647 28027 ft 454 kts 113°
2026-04-17 09:45 51.26542 7.13927 27460 ft 449 kts 127°
2026-04-17 09:45 51.24382 7.17476 26917 ft 445 kts 140°
2026-04-17 09:46 51.21899 7.20355 26375 ft 440 kts 149°
2026-04-17 09:46 51.19249 7.22674 25832 ft 433 kts 155°
2026-04-17 09:46 51.16509 7.24571 25285 ft 427 kts 160°
2026-04-17 09:46 51.13764 7.26261 24738 ft 422 kts 161°
2026-04-17 09:47 51.11060 7.27993 24188 ft 417 kts 160°
2026-04-17 09:47 51.08413 7.29798 23638 ft 413 kts 159°
2026-04-17 09:47 51.05829 7.31712 23093 ft 409 kts 156°
2026-04-17 09:47 51.03296 7.33708 22544 ft 405 kts 155°
2026-04-17 09:48 51.00810 7.35743 22007 ft 401 kts 155°
2026-04-17 09:48 50.98359 7.37793 21500 ft 397 kts 154°
2026-04-17 09:48 50.95940 7.39837 21000 ft 393 kts 154°
2026-04-17 09:48 50.93542 7.41868 20500 ft 390 kts 154°
2026-04-17 09:49 50.91165 7.43874 20001 ft 386 kts 154°
2026-04-17 09:49 50.88803 7.45846 19501 ft 383 kts 154°
2026-04-17 09:49 50.86454 7.47787 19001 ft 380 kts 154°
2026-04-17 09:49 50.84124 7.49699 18501 ft 376 kts 155°
2026-04-17 09:50 50.81873 7.51536 18015 ft 373 kts 155°
2026-04-17 09:50 50.79579 7.53403 17516 ft 370 kts 155°
2026-04-17 09:50 50.77301 7.55252 17016 ft 367 kts 155°
2026-04-17 09:50 50.75046 7.57080 16517 ft 364 kts 155°
2026-04-17 09:51 50.72807 7.58895 16017 ft 361 kts 154°
2026-04-17 09:51 50.70588 7.60693 15518 ft 358 kts 154°
2026-04-17 09:51 50.68387 7.62477 14985 ft 355 kts 154°
2026-04-17 09:51 50.66202 7.64246 14470 ft 352 kts 154°
2026-04-17 09:52 50.64036 7.65999 13970 ft 349 kts 154°
2026-04-17 09:52 50.61894 7.67731 13471 ft 346 kts 154°
2026-04-17 09:52 50.59763 7.69452 12971 ft 343 kts 154°
2026-04-17 09:52 50.57652 7.71155 12474 ft 340 kts 154°
2026-04-17 09:53 50.55580 7.72825 12331 ft 334 kts 154°
2026-04-17 09:53 50.53488 7.74507 12280 ft 342 kts 154°
2026-04-17 09:53 50.51360 7.76215 12268 ft 346 kts 154°
2026-04-17 09:53 50.49215 7.77936 12264 ft 349 kts 154°
2026-04-17 09:54 50.47058 7.79679 12263 ft 350 kts 154°
2026-04-17 09:54 50.44945 7.81598 12263 ft 352 kts 150°
2026-04-17 09:54 50.42893 7.83683 12264 ft 353 kts 147°
2026-04-17 09:54 50.40882 7.85895 12264 ft 354 kts 146°
2026-04-17 09:55 50.38907 7.88188 12264 ft 354 kts 144°
2026-04-17 09:55 50.36954 7.90539 12263 ft 355 kts 143°
2026-04-17 09:55 50.35018 7.92924 12263 ft 355 kts 143°
2026-04-17 09:55 50.33090 7.95327 12263 ft 355 kts 142°
2026-04-17 09:56 50.31167 7.97738 12263 ft 355 kts 142°
2026-04-17 09:56 50.29256 8.00169 12262 ft 355 kts 141°
2026-04-17 09:56 50.27447 8.02796 12263 ft 356 kts 137°
2026-04-17 09:56 50.25733 8.05597 12119 ft 360 kts 134°
2026-04-17 09:57 50.24075 8.08536 11642 ft 360 kts 131°
2026-04-17 09:57 50.22489 8.11528 11144 ft 357 kts 130°
2026-04-17 09:57 50.20950 8.14552 10644 ft 354 kts 129°
2026-04-17 09:57 50.19461 8.17551 10369 ft 346 kts 128°
2026-04-17 09:58 50.18010 8.20515 10290 ft 343 kts 128°
2026-04-17 09:58 50.16569 8.23471 10269 ft 343 kts 128°
2026-04-17 09:58 50.15128 8.26427 10264 ft 343 kts 128°
2026-04-17 09:58 50.13694 8.29359 10259 ft 336 kts 128°
2026-04-17 09:59 50.12309 8.32190 9833 ft 322 kts 128°
2026-04-17 09:59 50.11277 8.35179 9288 ft 311 kts 112°
2026-04-17 09:59 50.10939 8.38459 8814 ft 306 kts 96°
2026-04-17 09:59 50.11068 8.41740 8325 ft 302 kts 85°
2026-04-17 10:00 50.11481 8.44902 7831 ft 296 kts 78°
2026-04-17 10:00 50.12060 8.47943 7333 ft 291 kts 73°
2026-04-17 10:00 50.12727 8.50883 6842 ft 287 kts 71°
2026-04-17 10:00 50.13433 8.53759 6341 ft 282 kts 70°
2026-04-17 10:01 50.14145 8.56575 5835 ft 278 kts 70°
2026-04-17 10:01 50.14849 8.59363 5336 ft 275 kts 70°
2026-04-17 10:01 50.15535 8.62124 4843 ft 272 kts 70°
2026-04-17 10:01 50.16210 8.64859 4344 ft 269 kts 70°
2026-04-17 10:02 50.16854 8.67479 4076 ft 247 kts 70°
2026-04-17 10:02 50.17454 8.69916 4010 ft 238 kts 70°
2026-04-17 10:02 50.18040 8.72292 3997 ft 232 kts 70°
2026-04-17 10:02 50.18604 8.74596 3991 ft 223 kts 70°
2026-04-17 10:03 50.19148 8.76820 3989 ft 217 kts 70°
2026-04-17 10:03 50.19681 8.79002 3992 ft 214 kts 70°
2026-04-17 10:03 50.20210 8.81165 3993 ft 213 kts 70°
2026-04-17 10:03 50.20734 8.83310 3994 ft 212 kts 70°
2026-04-17 10:04 50.21258 8.85451 3995 ft 211 kts 70°
2026-04-17 10:04 50.21779 8.87586 3995 ft 211 kts 70°
2026-04-17 10:04 50.22212 8.89760 3957 ft 210 kts 79°
2026-04-17 10:04 50.21971 8.91934 3991 ft 207 kts 107°
2026-04-17 10:05 50.21020 8.93710 4015 ft 224 kts 136°
2026-04-17 10:05 50.19603 8.94660 4038 ft 219 kts 161°
2026-04-17 10:05 50.18118 8.94874 4005 ft 211 kts 177°
2026-04-17 10:05 50.16691 8.94541 3976 ft 207 kts 191°
2026-04-17 10:06 50.15484 8.93393 4039 ft 204 kts 213°
2026-04-17 10:06 50.14421 8.91880 4005 ft 204 kts 222°
2026-04-17 10:06 50.13507 8.90238 3996 ft 199 kts 229°
2026-04-17 10:06 50.12768 8.88433 3995 ft 200 kts 237°
2026-04-17 10:07 50.12174 8.86443 3995 ft 206 kts 245°
2026-04-17 10:07 50.11688 8.84342 3999 ft 207 kts 249°
2026-04-17 10:07 50.11259 8.82192 4001 ft 209 kts 252°
2026-04-17 10:07 50.10844 8.80065 3953 ft 203 kts 252°
2026-04-17 10:08 50.10413 8.77984 3686 ft 202 kts 251°
2026-04-17 10:08 50.09960 8.75947 3389 ft 196 kts 250°
2026-04-17 10:08 50.09509 8.74008 3116 ft 186 kts 249°
2026-04-17 10:08 50.09070 8.72160 2861 ft 179 kts 248°
2026-04-17 10:09 50.08645 8.70379 2632 ft 174 kts 249°
2026-04-17 10:09 50.08223 8.68633 2411 ft 171 kts 249°
2026-04-17 10:09 50.07816 8.66938 2248 ft 164 kts 249°
2026-04-17 10:09 50.07421 8.65290 2007 ft 163 kts 249°
2026-04-17 10:10 50.07029 8.63646 1793 ft 163 kts 249°
2026-04-17 10:10 50.06637 8.61986 1575 ft 163 kts 250°
2026-04-17 10:10 50.06248 8.60403 1387 ft 153 kts 250°
2026-04-17 10:11 50.05542 8.57396 961 ft 145 kts 251°
2026-04-17 10:11 50.05188 8.55940 773 ft 143 kts 250°
2026-04-17 10:11 50.04847 8.54497 591 ft 142 kts 250°
2026-04-17 10:11 50.04513 8.53059 375 ft 138 kts 250°
2026-04-17 10:12 50.04256 8.52032 373 ft 51 kts 252°
2026-04-17 10:12 50.04161 8.51664 373 ft 23 kts 237°
2026-04-17 10:12 50.04058 8.51478 373 ft 22 kts 221°
2026-04-17 10:12 50.03939 8.51374 373 ft 14 kts 168°
2026-04-17 10:13 50.03918 8.51482 373 ft 16 kts 73°
2026-04-17 10:13 50.03966 8.51694 373 ft 26 kts 71°
2026-04-17 10:13 50.04035 8.51993 373 ft 33 kts 70°
2026-04-17 10:13 50.04118 8.52347 373 ft 35 kts 70°
2026-04-17 10:14 50.04197 8.52680 373 ft 33 kts 69°
2026-04-17 10:14 50.04282 8.53031 373 ft 37 kts 69°
2026-04-17 10:14 50.04375 8.53419 381 ft 38 kts 70°
2026-04-17 10:14 50.04410 8.53781 393 ft 34 kts 87°
2026-04-17 10:15 50.04435 8.54116 393 ft 29 kts 84°
2026-04-17 10:15 50.04451 8.54380 393 ft 21 kts 85°
2026-04-17 10:15 50.04423 8.54600 384 ft 21 kts 117°
2026-04-17 10:15 50.04318 8.54766 373 ft 21 kts 153°
2026-04-17 10:16 50.04187 8.54848 373 ft 20 kts 159°
2026-04-17 10:16 50.04056 8.54921 373 ft 21 kts 161°
2026-04-17 10:16 50.03902 8.55008 373 ft 25 kts 159°
2026-04-17 10:16 50.03863 8.55169 373 ft 18 kts 71°
2026-04-17 10:17 50.03917 8.55403 373 ft 27 kts 70°
2026-04-17 10:17 50.03993 8.55714 373 ft 35 kts 69°
2026-04-17 10:17 50.04083 8.56095 373 ft 37 kts 70°
2026-04-17 10:17 50.04163 8.56439 373 ft 32 kts 68°
2026-04-17 10:18 50.04238 8.56743 373 ft 30 kts 70°
2026-04-17 10:18 50.04312 8.57051 373 ft 31 kts 69°
2026-04-17 10:18 50.04386 8.57364 373 ft 31 kts 69°
2026-04-17 10:18 50.04462 8.57681 373 ft 31 kts 69°
2026-04-17 10:19 50.04537 8.57991 373 ft 30 kts 70°
2026-04-17 10:19 50.04608 8.58292 373 ft 29 kts 70°
2026-04-17 10:19 50.04677 8.58582 373 ft 28 kts 70°
2026-04-17 10:19 50.04740 8.58825 373 ft 20 kts 70°
2026-04-17 10:20 50.04773 8.58937 373 ft 5 kts 35°
2026-04-17 10:20 50.04812 8.58923 373 ft 3 kts 338°
2026-04-17 10:20 50.04836 8.58910 373 ft 5 kts 340°
2026-04-17 10:20 50.04849 8.58902 373 ft 0 kts 340°